Location: Port Colborne
(42.8865°N, 79.2509°W)
Time: 14:10:47
(UTC-04:00)

ISS - Visible Passes

Search period start: 16 July 2019 00:00
Search period end: 26 July 2019 00:00
Orbit: 409 x 418 km, 51.6° (Epoch: 17 July)

Date Brightness Start Highest point End Pass type
(mag) Time Alt. Az. Time Alt. Az. Time Alt. Az.
16 Jul -2.3 00:06:40 10° W 00:09:49 38° NNW 00:12:59 10° NE visible
16 Jul -0.9 01:44:46 10° NW 01:47:10 18° N 01:49:35 10° NE visible
16 Jul -1.3 03:21:55 10° NW 03:24:41 23° NNE 03:27:25 10° ENE visible
16 Jul -3.9 04:58:22 10° WNW 05:01:41 86° SW 05:05:00 10° SE visible
16 Jul -2.4 21:41:38 10° S 21:44:05 19° SE 21:46:31 10° E visible
16 Jul -3.2 23:17:11 10° WSW 23:20:30 58° NNW 23:23:47 10° NE visible
17 Jul -1.0 00:55:07 10° WNW 00:57:41 20° N 01:00:14 10° NE visible
17 Jul -1.0 02:32:39 10° NW 02:35:13 20° N 02:37:45 10° ENE visible
17 Jul -3.1 04:09:07 10° NW 04:12:25 57° NNE 04:15:40 10° ESE visible
17 Jul -3.9 22:27:52 10° SW 22:31:12 86° SE 22:34:32 10° ENE visible
18 Jul -1.3 00:05:26 10° WNW 00:08:12 24° NNW 00:10:59 10° NE visible
18 Jul -0.8 01:43:18 10° NW 01:45:43 18° N 01:48:07 10° NE visible
18 Jul -2.3 03:19:55 10° NW 03:23:04 38° NNE 03:26:11 10° E visible
18 Jul -3.1 04:56:42 10° WNW 04:59:42 32° SW 05:02:41 10° SSE visible
18 Jul -3.6 21:38:43 10° SW 21:41:57 49° SE 21:45:11 10° ENE visible
18 Jul -1.8 23:15:45 10° W 23:18:45 30° NNW 23:21:45 10° NE visible
19 Jul -0.8 00:53:49 10° NW 00:56:11 18° N 00:58:33 10° NE visible
19 Jul -1.7 02:30:42 10° NW 02:33:38 28° NNE 02:36:33 10° E visible
19 Jul -3.8 04:07:14 10° WNW 04:10:30 57° SW 04:13:44 10° SE visible
19 Jul -2.4 22:26:08 10° W 22:29:20 42° NNW 22:32:33 10° NE visible
20 Jul -0.9 00:04:12 10° NW 00:06:39 19° N 00:09:05 10° NE visible
20 Jul -1.3 01:41:28 10° NW 01:44:10 22° NNE 01:46:03 14° ENE visible
20 Jul -1.4 03:17:54 10° NW 03:26:35 - ESE 03:18:36 15° NW visible
20 Jul -3.3 21:36:39 10° WSW 21:39:59 66° NNW 21:43:18 10° NE visible
20 Jul -1.1 23:14:29 10° WNW 23:17:07 21° NNW 23:19:44 10° NE visible
21 Jul -1.0 00:52:08 10° NW 00:54:39 19° N 00:56:15 14° NE visible
21 Jul -0.9 02:28:37 10° NW 02:29:00 13° NW 02:29:00 13° NW visible
21 Jul -1.4 22:24:45 10° WNW 22:27:36 25° NNW 22:30:27 10° NE visible
22 Jul -0.9 00:02:42 10° NW 00:05:05 18° N 00:07:28 10° NE visible
22 Jul -1.2 01:39:22 10° NW 01:40:32 18° NNW 01:40:32 18° NNW visible
22 Jul -1.9 21:35:03 10° W 21:38:07 33° NNW 21:41:11 10° NE visible
22 Jul -0.9 23:13:07 10° NW 23:15:31 18° N 23:17:54 10° NE visible
23 Jul -1.4 00:50:07 10° NW 00:52:22 24° N 00:52:22 24° N visible
23 Jul -1.0 22:23:27 10° NW 22:25:56 19° N 22:28:26 10° NE visible
24 Jul -1.4 00:00:48 10° NW 00:03:28 21° NNE 00:04:19 19° NE visible
24 Jul -1.2 21:33:41 10° WNW 21:36:22 22° NNW 21:39:03 10° NE visible
24 Jul -1.1 23:11:25 10° NW 23:13:53 19° N 23:16:21 10° NE visible
25 Jul -1.2 00:47:56 10° NW 00:49:09 20° NW 00:49:09 20° NW visible
25 Jul -1.1 22:21:54 10° NW 22:24:17 18° N 22:26:40 10° NE visible
